Flag for U.S.A. Weather past 2 weeks in Aurora, Colorado, U.S.A.

Now
60 °F

Passing clouds.


Feels Like: 58 °F
Forecast: 43 / 62 °F
Wind: 13 mph from Northwest

Location: Buckley Air Force Base

Current Time: Mar 29, 2015 at 12:21:33 AM

Latest Report: Mar 28, 2015 at 10:58 PM


Visibility: 10 mi

Pressure: 29.84 "Hg

Humidity: 31%

Dew point: 29 °F

Location of AuroraLocation

Historic Weather in Aurora — Graph

°F

Aurora temperature yesterday

Maximum temperature yesterday: 76 °F (at 2:58 PM)
Minimum temperature yesterday: 47 °F (at 3:58 AM)
Average temperature yesterday: 62 °F

Past Weeks' High & Low Weather Summary

 TemperatureHumidityPressure
High78 °F (Mar 16, 12:58 PM)100% (Mar 19, 12:58 AM)30.37 "Hg (Mar 19, 12:58 AM)
Low31 °F (Mar 25, 11:58 PM)5% (Mar 14, 4:58 PM)29.58 "Hg (Mar 25, 10:58 AM)
Average50 °F46%30.01 "Hg
* Reported Mar 13 10:58 PM — Mar 28 10:58 PM, Aurora, Weather by CustomWeather, © 2015

Note: Actual official high and low records may vary slightly from our data, if they occured in-between our weather recording intervals... More about our weather records

Advertising

Aurora weather history for previous 24 hours

 ConditionsComfort  
Time TempWeatherWind HumidityBarometerVisibility
10:58 PM
Sat, Mar 28
60 °FPassing clouds.13 mph31%29.84 "Hg10 mi
9:58 PM63 °FPassing clouds.14 mph23%29.81 "Hg10 mi
8:58 PM62 °FPassing clouds.9 mph23%29.83 "Hg10 mi
7:58 PM65 °FPassing clouds.12 mph19%29.82 "Hg10 mi
6:58 PM67 °FPassing clouds.8 mph20%29.80 "Hg10 mi
5:58 PM74 °FPassing clouds.17 mph14%29.78 "Hg10 mi
4:58 PM75 °FPassing clouds.16 mph13%29.78 "Hg10 mi
3:58 PM76 °FPassing clouds.18 mph12%29.79 "Hg10 mi
2:58 PM76 °FPassing clouds.7 mph13%29.81 "Hg10 mi
1:58 PM74 °FPassing clouds.5 mph14%29.85 "Hg10 mi
12:58 PM73 °FPassing clouds.7 mph17%29.86 "Hg10 mi
11:58 AM70 °FPassing clouds.10 mph19%29.90 "Hg10 mi
10:58 AM68 °FPassing clouds.9 mph22%29.92 "Hg10 mi
9:58 AM65 °FSunny.10 mph26%29.93 "Hg10 mi
8:58 AM59 °FSunny.10 mph33%29.94 "Hg10 mi
7:58 AM52 °FSunny.7 mph41%29.96 "Hg10 mi
6:58 AM49 °FClear.7 mph43%29.96 "Hg10 mi
5:58 AM48 °FClear.8 mph43%29.95 "Hg10 mi
4:58 AM47 °FClear.9 mph46%29.95 "Hg10 mi
3:58 AM47 °FClear.10 mph48%29.94 "Hg10 mi
2:58 AM47 °FClear.13 mph47%29.95 "Hg10 mi
1:58 AM48 °FPassing clouds.9 mph46%29.97 "Hg10 mi
12:58 AM50 °FPassing clouds.12 mph44%29.98 "Hg10 mi
Weather by CustomWeather, © 2015

See weather overviewHow to use our weather pages